Asswan, Egypt

2:10 PM EET on February 23, 2017 (GMT +0200)
Aswan

Weather History for HESN - December, 2013

Change the Weather History Date:

Friday, December 20, 2013

  Actual Average Record
Temperature  
Mean Temperature 60 °F -  
Max Temperature 73 °F 71 °F 89 °F (1999)
Min Temperature 47 °F 50 °F 44 °F (2003)
Degree Days  
Heating Degree Days 5    
Growing Degree Days 10 (Base 50)    
Moisture  
Dew Point 36 °F    
Average Humidity 40    
Maximum Humidity 66    
Minimum Humidity 19    
Precipitation  
Precipitation 0.00 in 0.00 in - ()
Sea Level Pressure  
Sea Level Pressure 30.15 in    
Wind  
Wind Speed 6 mph ()    
Max Wind Speed 10 mph    
Max Gust Speed -    
Visibility 6.0 miles    
Events      
Averages and records for this station are not official NWS values.
T = Trace of Precipitation, MM = Missing Value Source: Averaged Metar Reports

Daily Weather History Graph

Daily Weather History Graph

Search for Another Location

Airport or City:

Trip Planner

Search our weather history database for the weather conditions in past years. The results will help you decide how hot, cold, wet, or windy it might be!

Date:

Astronomy

Dec. 20, 2013 Rise Set
Actual Time 6:26 AM EET 5:06 PM EET
Civil Twilight 6:01 AM EET 5:31 PM EET
Nautical Twilight 5:33 AM EET 5:59 PM EET
Astronomical Twilight 5:05 AM EET 6:27 PM EET
Moon 7:51 PM EET (12/20) 8:23 AM EET (12/20)
Length of Visible Light 11h 29m
Length of Day
10h 39m
Waning Gibbous, 92% of the Moon is Illuminated
Dec 20
Waning Gibbous
Dec 25
Last Quarter
Jan 1
New
Jan 8
First Quarter
Jan 16
Full

Hourly Weather History & Observations

Time (EET) Temp. Dew Point Humidity Pressure Visibility Wind Dir Wind Speed Gust Speed Precip Events Conditions
12:00 AM 53.6 °F 30.2 °F 41% 30.18 in - North 6.9 mph - N/A   Clear
1:00 AM 50.0 °F 30.2 °F 47% 30.15 in - North 4.6 mph - N/A   Clear
2:00 AM 51 °F 32 °F 37% 30.18 in 6 mi North 5.8 mph - -  
2:00 AM 51.8 °F 32.0 °F 47% 30.15 in - North 5.8 mph - N/A   Clear
3:00 AM 51.8 °F 35.6 °F 54% 30.15 in - North 9.2 mph - N/A   Clear
4:00 AM 48.2 °F 35.6 °F 62% 30.15 in - North 6.9 mph - N/A   Clear
5:00 AM 48 °F 37 °F 55% 30.17 in 6 mi North 5.8 mph - -  
5:00 AM 48.2 °F 37.4 °F 66% 30.15 in - North 3.5 mph - N/A   Clear
6:00 AM 48.2 °F 37.4 °F 66% 30.15 in - North 5.8 mph - N/A   Clear
7:00 AM 48.2 °F 37.4 °F 66% 30.18 in - North 5.8 mph - N/A   Clear
8:00 AM 51 °F 37 °F 47% 30.22 in 6 mi North 4.6 mph - -  
8:00 AM 51.8 °F 37.4 °F 58% 30.21 in - North 4.6 mph - N/A   Clear
10:00 AM 60.8 °F 35.6 °F 39% 30.21 in - North 9.2 mph - N/A   Clear
11:00 AM 63 °F 36 °F 25% 30.19 in 6 mi North 9.2 mph - -  
11:00 AM 62.6 °F 35.6 °F 37% 30.18 in - North 9.2 mph - N/A   Clear
12:00 PM 66.2 °F 37.4 °F 35% 30.15 in - North 8.1 mph - N/A   Clear
1:00 PM 71.6 °F 42.8 °F 35% 30.12 in - North 9.2 mph - N/A   Clear
2:00 PM 73 °F 41 °F 21% 30.09 in 6 mi North 8.1 mph - -  
2:00 PM 73.4 °F 41.0 °F 31% 30.09 in - North 8.1 mph - N/A   Clear
3:00 PM 73.4 °F 41.0 °F 31% 30.09 in - North 8.1 mph - N/A   Clear
4:00 PM 71.6 °F 39.2 °F 31% 30.09 in - NNW 9.2 mph - N/A   Clear
5:00 PM 70 °F 36 °F 19% 30.09 in 6 mi NNW 10.4 mph - -  
5:00 PM 69.8 °F 37.4 °F 31% 30.09 in - NNW 10.4 mph - N/A   Clear
6:00 PM 68.0 °F 33.8 °F 28% 30.12 in - NNW 6.9 mph - N/A   Clear
7:00 PM 64.4 °F 33.8 °F 32% 30.12 in - North 9.2 mph - N/A   Clear
8:00 PM 63 °F - % 30.15 in 6 mi North 5.8 mph - -  
8:00 PM 62.6 °F 32.0 °F 32% 30.15 in - North 5.8 mph - N/A   Clear
9:00 PM 60.8 °F 30.2 °F 31% 30.15 in - North 8.1 mph - N/A   Clear
10:00 PM 59.0 °F 30.2 °F 34% 30.15 in - North 6.9 mph - N/A   Clear
11:00 PM 58 °F 31 °F 24% 30.18 in 6 mi NNW 4.6 mph - -  
11:00 PM 57.2 °F 32.0 °F 38% 30.15 in - North 4.6 mph - N/A   Clear